Point Lay, AK

2:12 PM AKDT on April 21, 2018 (GMT -0800)
Point Lay

Weather History for PPIZ - February, 2013

Change the Weather History Date:

Thursday, February 7, 2013

  Actual Average Record
Temperature  
Mean Temperature -26 °F -  
Max Temperature -20 °F -10 °F 29 °F (2012)
Min Temperature -33 °F -20 °F -43 °F (2004)
Degree Days  
Heating Degree Days 92    
Moisture  
Dew Point -34 °F    
Average Humidity 70    
Maximum Humidity 76    
Minimum Humidity 68    
Precipitation  
Precipitation 0.00 in - - ()
Sea Level Pressure  
Sea Level Pressure 29.87 in    
Wind  
Wind Speed 0 mph (North)    
Max Wind Speed 0 mph    
Max Gust Speed -    
Visibility 7 miles    
Events Snow    
Averages and records for this station are not official NWS values.
T = Trace of Precipitation, MM = Missing Value Source: NWS Daily Summary

Daily Weather History Graph

Daily Weather History Graph

Search for Another Location

Airport or City:

Astronomy

Feb. 07, 2013 Rise Set
Actual Time 10:59 AM AKST 5:14 PM AKST
Civil Twilight 9:44 AM AKST 6:29 PM AKST
Nautical Twilight 8:31 AM AKST 7:42 PM AKST
Astronomical Twilight 7:21 AM AKST 8:52 PM AKST
Moon 10:08 AM AKST (2/7) 1:39 PM AKST (2/7)
Length of Visible Light 8h 44m
Length of Day
6h 15m
Waning Crescent, 8% of the Moon is Illuminated
Feb 7
Waning Crescent
Feb 9
New
Feb 17
First Quarter
Feb 25
Full
Mar 4
Last Quarter

Hourly Weather History & Observations

Time (AKST) Temp. Dew Point Humidity Pressure Visibility Wind Dir Wind Speed Gust Speed Precip Events Conditions
12:56 AM -29.9 °F - N/A% 30.02 in 7.0 mi Calm Calm - N/A   Mostly Cloudy
1:25 AM -29.2 °F -36.4 °F 68% 30.00 in 10.0 mi Calm Calm - N/A   Scattered Clouds
1:56 AM -27.9 °F -35.0 °F 69% 30.01 in 8.0 mi Calm Calm - N/A   Clear
2:48 AM -29.2 °F -36.4 °F 68% 29.98 in 7.0 mi Calm Calm - N/A   Scattered Clouds
2:56 AM -28.8 °F -35.9 °F 69% 29.99 in 6.0 mi Calm Calm - N/A   Haze
3:56 AM -28.8 °F -35.9 °F 69% 29.97 in 10.0 mi Calm Calm - N/A   Clear
4:38 AM -29.2 °F - N/A% 29.94 in 5.0 mi Calm Calm - N/A   Haze
4:56 AM -27.9 °F -35.0 °F 69% 29.96 in 7.0 mi Calm Calm - N/A   Partly Cloudy
5:56 AM -26.9 °F -33.9 °F 69% 29.94 in 10.0 mi Calm Calm - N/A   Clear
6:56 AM -27.9 °F -33.9 °F 73% 29.92 in 5.0 mi Calm Calm - N/A   Haze
7:12 AM -29.2 °F - N/A% 29.90 in 6.0 mi Calm Calm - N/A   Haze
7:56 AM -27.9 °F -35.0 °F 69% 29.91 in 5.0 mi Calm Calm - N/A   Haze
8:56 AM -28.8 °F -35.9 °F 69% 29.89 in 5.0 mi Calm Calm - N/A   Haze
9:56 AM -28.8 °F -35.9 °F 69% 29.88 in 7.0 mi Calm Calm - N/A   Scattered Clouds
10:31 AM -23.8 °F -31.0 °F 69% 29.85 in 2.0 mi Calm Calm - N/A   Haze
10:39 AM -23.8 °F -29.2 °F 76% 29.84 in 4.0 mi Calm Calm - N/A   Haze
10:56 AM -20.9 °F -26.9 °F 74% 29.86 in 5.0 mi Calm Calm - N/A   Haze
11:56 AM -26.9 °F -33.9 °F 69% 29.85 in 3.0 mi Calm Calm - N/A   Haze
11:58 AM -27.4 °F -34.6 °F 69% 29.83 in 1.5 mi Calm Calm - N/A   Haze
12:04 PM -27.4 °F -34.6 °F 69% 29.83 in 1.0 mi Calm Calm - N/A   Haze
12:07 PM -27.4 °F -34.6 °F 69% 29.83 in 1.5 mi Calm Calm - N/A   Haze
12:09 PM -27.4 °F -34.6 °F 69% 29.83 in 3.0 mi Calm Calm - N/A   Haze
12:56 PM -29.9 °F - N/A% 29.84 in 10.0 mi Calm Calm - N/A   Clear
1:56 PM -27.9 °F -35.0 °F 69% 29.83 in 10.0 mi Calm Calm - N/A   Clear
2:56 PM -28.8 °F -35.9 °F 69% 29.82 in 10.0 mi Calm Calm - N/A   Clear
3:03 PM -29.2 °F - N/A% 29.80 in 10.0 mi Calm Calm - N/A   Partly Cloudy
3:56 PM -28.8 °F -35.9 °F 69% 29.81 in 10.0 mi Calm Calm - N/A   Partly Cloudy
4:32 PM -29.2 °F - N/A% 29.78 in 6.0 mi Calm Calm - 0.00 in Snow Light Snow
4:40 PM -29.2 °F - N/A% 29.78 in 9.0 mi Calm Calm - 0.00 in Snow Light Snow
4:56 PM -28.8 °F -35.9 °F 69% 29.80 in 10.0 mi Calm Calm - 0.00 in   Partly Cloudy
5:56 PM -27.9 °F -33.9 °F 73% 29.79 in 10.0 mi Calm Calm - N/A   Scattered Clouds
6:56 PM -26.0 °F -33.0 °F 69% 29.79 in 10.0 mi Calm Calm - N/A   Partly Cloudy
7:56 PM -31.9 °F - N/A% 29.79 in 10.0 mi Calm Calm - N/A   Clear
8:56 PM -32.8 °F - N/A% 29.78 in 10.0 mi Calm Calm - N/A   Clear
9:56 PM -28.8 °F -35.9 °F 69% 29.79 in 10.0 mi Calm Calm - N/A   Clear
10:56 PM -33.0 °F - N/A% 29.80 in 10.0 mi Calm Calm - N/A   Clear
11:56 PM -29.9 °F - N/A% 29.80 in 10.0 mi Calm Calm - N/A   Clear